TimeCET,TemperatureF,Dew PointF,Humidity,Sea Level PressureIn,VisibilityMPH,Wind Direction,Wind SpeedMPH,Gust SpeedMPH,PrecipitationIn,Events,Conditions,WindDirDegrees,DateUTC
12:00 AM,46.4,42.8,87,29.80,6.2,Variable,2.3,-,N/A,Rain,Rain,0,2012-11-10 23:00:00
5:30 AM,44.6,39.2,81,29.80,6.2,North,5.8,-,N/A,,Mostly Cloudy,350,2012-11-11 04:30:00
6:00 AM,44.6,41.0,87,29.80,6.2,North,5.8,-,N/A,,Mostly Cloudy,350,2012-11-11 05:00:00
6:30 AM,42.8,39.2,87,29.80,6.2,NNW,4.6,-,N/A,,Scattered Clouds,330,2012-11-11 05:30:00
7:00 AM,44.6,41.0,87,29.80,6.2,NNW,4.6,-,N/A,,Mostly Cloudy,340,2012-11-11 06:00:00
8:00 AM,44.6,41.0,87,29.83,6.2,NNW,6.9,-,N/A,,Mostly Cloudy,340,2012-11-11 07:00:00
8:30 AM,44.6,39.2,81,29.86,6.2,NNW,9.2,-,N/A,,Mostly Cloudy,330,2012-11-11 07:30:00
9:00 AM,44.6,41.0,87,29.86,6.2,NNW,11.5,-,N/A,,Mostly Cloudy,340,2012-11-11 08:00:00
9:30 AM,44.6,41.0,87,29.89,6.2,NW,10.4,-,N/A,,Mostly Cloudy,320,2012-11-11 08:30:00
10:00 AM,44.6,41.0,87,29.89,6.2,NNW,9.2,-,N/A,,Mostly Cloudy,330,2012-11-11 09:00:00
10:30 AM,46.4,41.0,81,29.89,6.2,NW,12.7,-,N/A,,Mostly Cloudy,320,2012-11-11 09:30:00
11:00 AM,46.4,41.0,81,29.92,6.2,NNW,9.2,-,N/A,,Mostly Cloudy,340,2012-11-11 10:00:00
11:30 AM,48.2,41.0,76,29.92,6.2,North,13.8,-,N/A,,Mostly Cloudy,360,2012-11-11 10:30:00
12:00 PM,50.0,41.0,71,29.92,6.2,NNW,12.7,-,N/A,,Scattered Clouds,340,2012-11-11 11:00:00
12:30 PM,50.0,42.8,76,29.92,6.2,NNW,13.8,-,N/A,,Scattered Clouds,340,2012-11-11 11:30:00
1:00 PM,51.8,42.8,71,29.92,6.2,North,13.8,-,N/A,,Scattered Clouds,360,2012-11-11 12:00:00
1:30 PM,51.8,42.8,71,29.95,6.2,North,17.3,-,N/A,,Mostly Cloudy,350,2012-11-11 12:30:00
2:00 PM,50.0,41.0,71,29.95,6.2,North,16.1,-,N/A,,Scattered Clouds,360,2012-11-11 13:00:00
2:30 PM,50.0,41.0,71,29.95,6.2,NW,13.8,-,N/A,,Scattered Clouds,310,2012-11-11 13:30:00
3:00 PM,51.8,41.0,67,29.95,6.2,NW,17.3,-,N/A,,Scattered Clouds,320,2012-11-11 14:00:00
3:30 PM,50.0,39.2,66,29.98,6.2,North,17.3,-,N/A,,Scattered Clouds,360,2012-11-11 14:30:00
4:00 PM,50.0,39.2,66,29.98,6.2,North,17.3,-,N/A,,Scattered Clouds,350,2012-11-11 15:00:00
4:30 PM,50.0,41.0,71,29.98,6.2,North,18.4,-,N/A,,Scattered Clouds,360,2012-11-11 15:30:00
5:00 PM,50.0,39.2,66,30.01,6.2,North,16.1,-,N/A,,Mostly Cloudy,360,2012-11-11 16:00:00
5:30 PM,48.2,39.2,71,30.01,6.2,North,15.0,-,N/A,,Mostly Cloudy,360,2012-11-11 16:30:00
6:00 PM,48.2,39.2,71,30.04,6.2,North,13.8,-,N/A,,Scattered Clouds,350,2012-11-11 17:00:00
6:30 PM,48.2,41.0,76,30.06,6.2,North,11.5,-,N/A,Rain,Light Rain,10,2012-11-11 17:30:00
7:00 PM,46.4,41.0,81,30.09,6.2,North,8.1,-,N/A,,Scattered Clouds,350,2012-11-11 18:00:00
7:30 PM,46.4,41.0,81,30.09,6.2,North,15.0,-,N/A,,Scattered Clouds,360,2012-11-11 18:30:00
8:30 PM,44.6,41.0,87,30.12,6.2,NNW,9.2,-,N/A,,Scattered Clouds,330,2012-11-11 19:30:00
9:00 PM,44.6,41.0,87,30.12,6.2,NNW,10.4,-,N/A,,Scattered Clouds,330,2012-11-11 20:00:00
9:30 PM,44.6,41.0,87,30.12,6.2,NNW,10.4,-,N/A,,Scattered Clouds,340,2012-11-11 20:30:00
10:00 PM,46.4,41.0,81,30.15,6.2,NNW,15.0,-,N/A,,Scattered Clouds,340,2012-11-11 21:00:00
10:30 PM,44.6,41.0,87,30.15,6.2,NNW,10.4,-,N/A,,Scattered Clouds,340,2012-11-11 21:30:00
11:00 PM,44.6,41.0,87,30.18,6.2,NNW,8.1,-,N/A,,Scattered Clouds,340,2012-11-11 22:00:00
11:30 PM,44.6,41.0,87,30.18,6.2,NNW,10.4,-,N/A,,Partly Cloudy,330,2012-11-11 22:30:00